Weather in Otryad-Alabuga

Russia / Kurgan Oblast     54°26′46″N   65°05′00″E
В апреле 2022 года жителям России запретили посещать сайт meteo.paraplan.net по решению Генеральной прокуратуры. Аудитория сайта уменьшилась в 10 раз. Владельцы сайта не видят смысла в поддержке погодного сервера в таких условиях. Сайт будет закрыт в октябре.
temp.,
°C
wind,
m/s
gust,
m/s
humid.,
%
clouds,
%
prec.,
mm/h
press.,
hPa
HPBL,
m
3 october, mon
mon323:00+5s493372 0.0 1032242
02:00+2s473921 0.0 1032141
05:00+1sse47415 0.0 1032115
08:00+3s374054 0.0 1032181
11:00+9s45275 0.0 1032573
14:00+11s44245 0.0 1031884
17:00+11s35255 0.0 1030367
20:00+7s343162 0.0 103255
4 october, tue
tue423:00+5s363434 0.0 103288
02:00+4ssw36375 0.0 1033103
05:00+3ssw36395 0.0 103398
08:00+4ssw373899 0.0 1034152
11:00+9sw4728100 0.0 1035333
14:00+13sw452427 0.0 1034631
17:00+13sw35285 0.0 1034151
20:00+9sw33345 0.0 103536
5 october, wed
wed523:00+8sw34355 0.0 103554
02:00+7ssw34345 0.0 103657
05:00+6sw35375 0.0 103679
08:00+6ssw3736100 0.0 1036145
11:00+12sw5726100 0.0 1036473
14:00+14sw6721100 0.0 1034849
17:00+13sw4725100 0.0 1033214
20:00+9ssw4732100 0.0 1033110
6 october, thu
thu623:00+7sw3534100 0.0 103374
02:00+7ssw3633100 0.0 1032108
05:00+8s3333100 0.0 103065
08:00+8s3731100 0.0 1030170
11:00+13ssw5721100 0.0 1028429
14:00+16ssw5616100 0.0 1026910
17:00+15s4818100 0.0 1024234
20:00+11s41024100 0.0 1024165
7 october, fri
fri723:00+11s51122100 0.0 1022233
02:00+11s51123100 0.0 1021230
05:00+10s41023100 0.0 1019221
08:00+10s51022100 0.0 1017239
11:00+14ssw61018100 0.0 1015546
14:00+14ssw71145100 0.1 1013836
17:00+15sw6113594 0.1 10111277
20:00+9sw497398 0.1 1012201